User: anonymous   Login
Location: Pine Mountain Observatory
(43.7910°N, 120.9377°W)
Time: 14:26:47
(UTC-08:00)
Language:

Cosmos 1076 Rocket - Orbit

View from above orbital plane
View from above orbital plane
View from above satellite
View from above satellite

Ground track
Ground track

The orbit data is extracted from the following two-line orbital elements,

1 11267U 79011B   17326.84462166 +.00000147 +00000-0 +12961-4 0  9996
2 11267 082.5260 079.6988 0018294 064.6110 295.6999 14.88869852077878
Epoch (UTC): 22 November 2017 20:16:15
Eccentricity: 0.0018294
inclination: 82.5260°
perigee height: 589 km
apogee height: 614 km
right ascension of ascending node: 79.6988°
argument of perigee: 64.6110°
revolutions per day: 14.88869852
mean anomaly at epoch: 295.6999°
orbit number at epoch: 7787

The dashed part of the orbit path shows where the satellite is in the earth's shadow,  

DLR